[[{"header":{"parameterUnit":"m.s-1","parameterCategory":1,"la1":30.2991,"la2":30.254,"lo1":-89.0895,"lo2":-89.0444,"dy":0.0017,"dx":0.0017,"nx":28,"ny":28,"refTime":"2024-09-01T09:00:00:Z","depth":0,"parameterNumber":2,"parameterNumberName":"U-component_of_WINDS"},"data":[0,0,0,0,0,0,0,0,0,0,0,0,0,0,0,0,0,0,0,0,0,0,0,0,0,0,0,0,0,0,0,0,0,0,0,0,0,0,0,0,0,0,0,0,0,0,0,0,0,0,0,0,0,0,0,0,0,0,-3.2994,-3.2994,0,-3.2928,-3.2927,-3.2926,-3.2841,-3.284,-3.2838,-3.2837,-3.2769,-3.2769,-3.2768,0,0,0,0,0,0,0,0,0,0,0,0,0,-3.3052,-3.3051,-3.2995,-3.2994,-3.2993,-3.2928,-3.2927,-3.2926,-3.2841,-3.284,-3.2838,-3.2836,-3.277,-3.2769,-3.2768,0,0,0,0,0,0,0,0,0,0,0,0,0,-3.301,-3.3051,-3.2995,-3.2943,-3.2937,-3.2928,-3.2927,-3.2926,-3.2842,-3.284,-3.2838,-3.2836,-3.277,-3.2769,-3.2768,-3.2805,0,0,-3.2766,-3.2766,0,0,0,0,0,0,0,0,-3.3013,-3.3008,-3.2951,-3.2946,-3.294,-3.2891,-3.2922,-3.2885,-3.2842,-3.2878,-3.2837,-3.2835,-3.2812,-3.2807,-3.2799,-3.2802,-3.2799,-3.2766,-3.2765,-3.2765,-3.2765,0,0,0,0,0,0,0,-3.3016,-3.3011,-3.2968,-3.2951,-3.2944,-3.2924,-3.2916,-3.2915,-3.2857,-3.2875,-3.2868,-3.2862,-3.2808,-3.28,-3.2797,-3.2798,-3.2766,-3.2765,-3.2765,-3.2764,-3.283,-3.2832,0,0,0,0,0,0,-3.3026,-3.3014,-3.297,-3.2966,-3.2972,-3.2925,-3.2915,-3.2909,-3.2857,-3.2847,-3.2863,-3.2858,-3.2802,-3.2798,-3.2794,-3.2835,-3.2765,-3.2764,-3.2764,-3.2828,-3.2831,-3.2833,0,0,0,0,0,0,-3.3028,-3.3023,-3.2973,-3.2988,-3.298,-3.2926,-3.2919,-3.2908,-3.29,-3.2848,-3.2838,-3.2866,-3.2801,-3.2795,-3.2803,-3.2831,-3.2764,-3.2763,-3.2825,-3.2829,-3.2832,-3.2916,0,0,0,0,0,0,-3.303,-3.3024,-3.3036,-3.2989,-3.298,-3.2982,-3.2921,-3.2909,-3.2899,-3.2891,-3.2848,-3.2838,-3.2799,-3.2805,-3.2803,-3.2829,-3.2763,-3.2823,-3.2827,-3.2831,-3.2911,-3.2922,-3.2932,0,0,0,0,0,-3.3032,-3.3062,-3.3037,-3.3032,-3.2994,-3.2984,-3.2979,-3.2932,-3.2902,-3.2914,-3.2882,-3.284,-3.2829,-3.2807,-3.2803,-3.283,-3.2821,-3.2826,-3.2831,-3.2906,-3.292,-3.2931,0,0,0,0,0,0,-3.3113,-3.3055,-3.3027,-3.3042,-3.3019,-3.297,-3.2983,-3.2948,-3.2932,-3.2926,-3.2869,-3.286,-3.2876,-3.2854,-3.2829,-3.2864,-3.2819,-3.2824,-3.2877,-3.289,-3.2901,-3.2905,-3.2762,0,0,0,0,0,-3.3133,-3.3129,-3.3079,-3.3098,-3.3088,-3.3038,-3.3032,-3.2999,-3.2972,-3.2962,-3.2929,-3.2906,-3.2897,-3.2893,-3.2882,-3.2908,-3.2898,-3.2925,-3.2936,-3.2944,-3.2949,-3.2963,-3.2975,-3.2849,-3.2849,-3.2849,0,0,-3.3173,-3.3141,-3.3142,-3.3113,-3.3091,-3.309,-3.303,-3.303,-3.3029,-3.2962,-3.2967,-3.2944,-3.2914,-3.2932,-3.2938,-3.2914,-3.2982,-3.2951,-3.2958,-3.2957,-3.297,-3.2982,-3.2992,-3.2853,-3.2852,-3.2852,0,0,-3.3247,-3.3222,-3.3235,-3.3215,-3.3183,-3.3151,-3.3155,-3.3112,-3.3093,-3.3099,-3.3049,-3.3048,-3.3033,-3.3015,-3.3004,-3.3075,-3.3037,-3.3074,-3.3128,-3.3143,-3.3153,-3.3161,-3.3188,-3.3198,-3.3078,-3.3079,-3.3079,0,-3.3301,-3.3296,-3.3247,-3.3251,-3.3241,-3.3181,-3.3196,-3.3179,-3.3145,-3.314,-3.3114,-3.3098,-3.3073,-3.3087,-3.3105,-3.3098,-3.3101,-3.3077,-3.3155,-3.3163,-3.3171,-3.3195,-3.3205,-3.3083,-3.3083,-3.3082,-3.3082,0,-3.3365,-3.3363,-3.3378,-3.3348,-3.334,-3.3349,-3.3303,-3.3301,-3.327,-3.3241,-3.3249,-3.3218,-3.3202,-3.3203,-3.3171,-3.3213,-3.32,-3.3166,-3.3119,-3.3188,-3.321,-3.3219,-3.309,-3.3088,-3.3087,-3.3086,0,0,-3.3483,-3.3429,-3.3436,-3.3423,-3.3385,-3.3383,-3.3392,-3.3375,-3.3375,-3.3356,-3.3362,-3.3354,-3.3323,-3.331,-3.3277,-3.3291,-3.3351,-3.3255,-3.3253,-3.3274,-3.3398,-3.3423,-3.3435,-3.3327,-3.3328,-3.3329,-3.34,0,-3.3549,-3.3559,-3.3518,-3.3539,-3.3538,-3.3484,-3.3492,-3.347,-3.3445,-3.3441,-3.3413,-3.3409,-3.3368,-3.336,-3.3371,-3.3341,-3.3375,-3.3336,-3.3333,-3.3333,-3.3341,-3.3446,-3.3472,-3.354,-3.3409,-3.341,-3.3411,0,-3.3626,-3.3612,-3.3634,-3.3598,-3.3596,-3.3603,-3.3587,-3.3584,-3.356,-3.3541,-3.353,-3.3492,-3.35,-3.3457,-3.3467,-3.3442,-3.3439,-3.3425,-3.3426,-3.3423,-3.3376,-3.3446,-3.3561,-3.3571,-3.3424,-3.3423,-3.3422,0,-3.3712,-3.3698,-3.371,-3.37,-3.3658,-3.3666,-3.3649,-3.3623,-3.3617,-3.3604,-3.36,-3.3588,-3.3581,-3.3573,-3.3534,-3.3506,-3.355,-3.3503,-3.3535,-3.3537,-3.3546,-3.3545,-3.3661,-3.3545,-3.3545,-3.3545,-3.3544,0,-3.3789,-3.3804,-3.3748,-3.3755,-3.3772,-3.3725,-3.3744,-3.3722,-3.37,-3.3703,-3.3656,-3.366,-3.3609,-3.3608,-3.3579,-3.3593,-3.359,-3.3576,-3.3568,-3.358,-3.3582,-3.3576,-3.357,-3.3547,-3.3547,-3.3546,-3.3546,0,-3.3886,-3.3848,-3.3858,-3.3819,-3.381,-3.3824,-3.3791,-3.3797,-3.3771,-3.3776,-3.3774,-3.3732,-3.3729,-3.369,-3.3679,-3.3659,-3.3686,-3.3669,-3.3694,-3.3688,-3.3722,-3.372,-3.3838,-3.3852,-3.3727,-3.3729,-3.373,0,-3.3937,-3.3948,-3.3911,-3.391,-3.3896,-3.3895,-3.3889,-3.3846,-3.3842,-3.3818,-3.3828,-3.3821,-3.3813,-3.3812,-3.3781,-3.3773,-3.3755,-3.3798,-3.3754,-3.3767,-3.3757,-3.3756,-3.3758,-3.3807,-3.3808,-3.3809,-3.381,0,-3.4032,-3.4014,-3.4008,-3.3997,-3.3992,-3.3981,-3.3966,-3.3969,-3.3921,-3.392,-3.3917,-3.3911,-3.3901,-3.3896,-3.3883,-3.3867,-3.3832,-3.3825,-3.3832,-3.3844,-3.3858,-3.3852,-3.3719,-3.3822,-3.3821,-3.382,-3.3819,-3.3819,-3.4108,-3.4116,-3.4093,-3.4088,-3.4074,-3.4063,-3.4067,-3.4042,-3.4039,-3.4027,-3.4002,-3.4003,-3.3983,-3.3962,-3.395,-3.3951,-3.3929,-3.3939,-3.3942,-3.3945,-3.3952,-3.3859,-3.3949,-3.3948,-3.3948,-3.3948,-3.3947,0,-3.4201,-3.4184,-3.4181,-3.4164,-3.4161,-3.413,-3.4114,-3.4114,-3.4116,-3.4099,-3.4094,-3.4092,-3.4088,-3.4058,-3.4051,-3.4059,-3.4042,-3.4058,-3.4057,-3.4054,-3.3971,-3.3966,-3.4071,-3.4071,-3.4071,-3.4071,-3.4071,-3.4071,-3.4249,-3.4262,-3.4242,-3.4249,-3.4232,-3.4233,-3.4227,-3.4218,-3.4205,-3.4205,-3.4202,-3.4183,-3.4162,-3.4154,-3.415,-3.4141,-3.4141,-3.4162,-3.4149,-3.4072,-3.406,-3.4048,-3.4043,-3.4163,-3.4163,-3.4231,-3.4232,-3.4232]},{"header":{"parameterUnit":"m.s-1","parameterCategory":1,"la1":30.2991,"la2":30.254,"lo1":-89.0895,"lo2":-89.0444,"dy":0.0017,"dx":0.0017,"nx":28,"ny":28,"refTime":"2024-09-01T09:00:00:Z","depth":0,"parameterNumber":3,"parameterNumberName":"V-component_of_WINDS"},"data":[0,0,0,0,0,0,0,0,0,0,0,0,0,0,0,0,0,0,0,0,0,0,0,0,0,0,0,0,0,0,0,0,0,0,0,0,0,0,0,0,0,0,0,0,0,0,0,0,0,0,0,0,0,0,0,0,0,0,3.0001,3.0001,0,2.9989,2.9989,2.9989,3.0025,3.0026,3.0027,3.0028,3.001,3.0009,3.0007,0,0,0,0,0,0,0,0,0,0,0,0,0,3.0051,3.005,3.0001,3.0001,3.0001,2.9989,2.9989,2.9989,3.0025,3.0026,3.0028,3.0029,3.0011,3.0009,3.0007,0,0,0,0,0,0,0,0,0,0,0,0,0,3.0033,3.005,3.0001,3.0018,3.0019,2.9989,2.9989,2.9989,3.0024,3.0026,3.0028,3.0029,3.0011,3.0009,3.0007,2.9959,0,0,3.0,2.9999,0,0,0,0,0,0,0,0,3.0034,3.0031,3.0015,3.0016,3.0018,3.001,3.0,2.9978,3.0024,3.0022,3.0028,3.003,3.0009,3.0007,3.0,2.9958,2.9957,3.0,2.9998,2.9997,2.9997,0,0,0,0,0,0,0,3.0035,3.0032,2.9996,3.0015,3.0017,3.0024,3.0023,2.9996,3.0006,3.0022,3.0025,3.0023,3.001,3.0003,3.0,2.9957,3.0,2.9998,2.9996,2.9995,2.9874,2.9872,0,0,0,0,0,0,3.0035,3.0033,2.9997,2.9996,3.003,3.0022,3.0021,3.0011,3.0006,3.0007,3.0022,3.0025,3.0006,3.0003,3.0,2.9943,2.9997,2.9995,2.9994,2.9876,2.9874,2.9872,0,0,0,0,0,0,3.0036,3.0031,2.9997,3.0015,3.0011,3.0019,3.0008,3.001,3.0003,3.0006,3.0007,3.0013,3.0007,3.0003,2.9969,2.9943,2.9994,2.9992,2.9878,2.9875,2.9873,2.9829,0,0,0,0,0,0,3.0037,3.0032,3.0014,3.0014,3.001,2.9968,3.0006,3.0008,3.0,3.0004,2.9998,2.9999,3.0008,2.9972,2.9967,2.9941,2.999,2.988,2.9877,2.9874,2.9833,2.9825,2.9818,0,0,0,0,0,3.0039,3.0002,3.0013,3.0009,2.9989,2.9966,2.9964,2.9976,2.9997,2.9979,2.9981,2.9999,2.9947,2.9969,2.9963,2.9935,2.9882,2.9878,2.9874,2.9836,2.9827,2.9819,0,0,0,0,0,0,2.9996,3.0002,3.0015,2.9977,2.9971,2.9973,2.995,2.9966,2.9953,2.9957,2.9971,2.997,2.9933,2.9931,2.9955,2.9888,2.9918,2.9912,2.9891,2.9882,2.9875,2.9876,2.9988,0,0,0,0,0,2.9983,2.9965,2.9971,2.9936,2.9933,2.9942,2.9933,2.9943,2.9937,2.9934,2.9934,2.9925,2.9907,2.9895,2.9878,2.9833,2.9832,2.9811,2.9804,2.9798,2.9793,2.9768,2.9759,2.9858,2.9858,2.9858,0,0,2.9954,2.9955,2.9943,2.9928,2.9925,2.9905,2.994,2.9917,2.9902,2.993,2.9898,2.9898,2.9889,2.985,2.9832,2.9847,2.9766,2.9793,2.9788,2.9786,2.9763,2.9754,2.9745,2.9855,2.9856,2.9856,0,0,2.9891,2.9891,2.9862,2.9859,2.9854,2.9861,2.9854,2.9853,2.9854,2.9823,2.9844,2.9825,2.9794,2.9787,2.9779,2.9715,2.973,2.9709,2.9671,2.9647,2.9639,2.9632,2.9609,2.96,2.9704,2.9704,2.9704,0,2.9856,2.9828,2.9845,2.9822,2.9814,2.984,2.9811,2.9806,2.9795,2.9788,2.9806,2.9767,2.9763,2.9722,2.9707,2.97,2.9691,2.9709,2.964,2.9633,2.9627,2.9604,2.9595,2.9701,2.9702,2.9702,2.9702,0,2.9784,2.9765,2.9742,2.9733,2.9723,2.9696,2.9708,2.9695,2.9707,2.9711,2.9678,2.9675,2.9658,2.9649,2.966,2.9609,2.9619,2.9637,2.9667,2.9614,2.9593,2.9585,2.9698,2.9699,2.9699,2.97,0,0,2.9693,2.9695,2.9686,2.9683,2.968,2.9664,2.9638,2.9624,2.9613,2.9604,2.9582,2.9555,2.9573,2.9564,2.9574,2.9553,2.9501,2.9574,2.9574,2.956,2.9445,2.943,2.942,2.9512,2.951,2.9509,2.9445,0,2.9632,2.9589,2.9604,2.956,2.9542,2.9567,2.9544,2.9539,2.9542,2.9526,2.9529,2.951,2.9535,2.953,2.951,2.9512,2.9478,2.9517,2.949,2.9489,2.949,2.9409,2.9394,2.9334,2.9437,2.9436,2.9435,0,2.9554,2.9544,2.9499,2.95,2.9493,2.9472,2.946,2.9445,2.9439,2.9443,2.9434,2.9448,2.9421,2.9452,2.9414,2.944,2.943,2.9429,2.9427,2.9424,2.9458,2.9403,2.9315,2.9306,2.9422,2.9423,2.9424,0,2.9491,2.9467,2.9437,2.9433,2.9433,2.9418,2.9417,2.9413,2.9404,2.9393,2.9386,2.9371,2.9363,2.935,2.9359,2.9381,2.932,2.9351,2.9321,2.9321,2.9306,2.9307,2.9214,2.9301,2.9301,2.9301,2.9301,0,2.942,2.9391,2.9409,2.9391,2.9359,2.9375,2.9343,2.9344,2.9341,2.9322,2.9342,2.9323,2.9337,2.9319,2.9326,2.9293,2.9289,2.9291,2.9292,2.9288,2.9288,2.9281,2.9285,2.9299,2.9299,2.93,2.93,0,2.9345,2.9356,2.9325,2.9328,2.9328,2.9304,2.9306,2.9288,2.9293,2.9269,2.9264,2.9271,2.9251,2.926,2.9238,2.9243,2.9201,2.9208,2.9203,2.9205,2.9174,2.9176,2.9073,2.9059,2.9155,2.9154,2.9154,0,2.9298,2.9277,2.9278,2.9268,2.9266,2.9249,2.924,2.9255,2.9244,2.9236,2.9219,2.9201,2.9188,2.9154,2.9156,2.914,2.9147,2.9112,2.9144,2.9141,2.9145,2.9146,2.9144,2.9105,2.9104,2.9103,2.9102,0,2.9215,2.9221,2.9208,2.9197,2.9186,2.9177,2.917,2.916,2.9175,2.9161,2.9142,2.9132,2.9111,2.9092,2.9077,2.9075,2.909,2.9092,2.9084,2.9079,2.9077,2.9077,2.9185,2.9094,2.9095,2.9095,2.9096,2.9096,2.9152,2.9134,2.9133,2.9117,2.9114,2.9107,2.909,2.9094,2.9079,2.9064,2.9074,2.9051,2.9045,2.9027,2.9022,2.9004,2.9017,2.9006,2.9003,2.8999,2.8995,2.908,2.9001,2.9001,2.9002,2.9002,2.9002,0,2.9069,2.9069,2.9055,2.9046,2.9033,2.9051,2.9044,2.9032,2.9012,2.9007,2.8994,2.8971,2.8953,2.8955,2.8938,2.8923,2.893,2.8918,2.8919,2.8918,2.8984,2.8993,2.8913,2.8913,2.8913,2.8913,2.8913,2.8913,2.9024,2.8995,2.9002,2.8971,2.8971,2.895,2.8945,2.8938,2.8934,2.8908,2.8895,2.8896,2.8893,2.8876,2.8861,2.8861,2.8854,2.8839,2.8842,2.8904,2.8913,2.8921,2.8929,2.8838,2.8838,2.8778,2.8777,2.8777]}]]